Regional Weather Roundup
Issued by NWS

Home | Current Version | Previous Version | Graphics & Text | Print | Product List | Glossary On
Versions: 1 2 3 4 5 6 7 8 9 10 11 12 13 14 15 16 17 18 19 20 21 22 23 24 25 26 27 28 29 30 31 32 33 34 35 36 37 38 39 40 41 42 43 44 45 46 47 48 49 50
000
ASUS45 KABQ 251601
RWRNM
NEW MEXICO REGIONAL WEATHER ROUNDUP
NATIONAL WEATHER SERVICE ALBUQUERQUE NM
1000 AM MDT MON MAY 25 2015

NOTE: "FAIR" MEANS FEW OR NO CLOUDS BELOW 12,000 FEET AGL WITH NO
       SIGNIFICANT WEATHER OR OBSTRUCTIONS TO VISION.

      THIS PRODUCT IS RELEASED AS TWO VERSIONS.  ONE VERSION NEAR
      THE TOP OF THE HOUR CONTAINING PRELIMINARY DATA FROM ALBUQUERQUE
      AND OTHER STATIONS.  A FINAL VERSION WITH ADDITIONAL DATA IS
      ISSUED ABOUT 10 MINUTES AFTER THE HOUR.

NMZ501-503-504-510>518-251700-
NORTHWEST PLATEAU/NORTHCENTRAL MOUNTAINS

CITY           SKY/WX    TMP DP  RH WIND       PRES   REMARKS
FARMINGTON     PTSUNNY   56  43  61 VRB3      30.01S
SANTA FE       MOSUNNY   59  37  44 VRB6      30.00F
TAOS           MOSUNNY   54  36  50 CALM      30.05S

$$
NMZ402-403-502-505>509-251700-
WESTCENTRAL MOUNTAINS/SOUTHWEST MOUNTAINS

CITY           SKY/WX    TMP DP  RH WIND       PRES   REMARKS
GALLUP         MOSUNNY   55  40  56 SW14      30.07R
GRANTS         PTSUNNY   57  38  48 NW9       30.07S
SILVER CITY      N/A     64  28  25 NW16      30.08S

$$
NMZ407-409-411-412-251700-
SOUTHERN DESERTS

CITY           SKY/WX    TMP DP  RH WIND       PRES   REMARKS
DEMING         SUNNY     70  33  25 W10       30.02F
ALAMOGORDO     SUNNY     68  36  30 CALM      29.98S
T OR C         SUNNY     68  36  30 NW13G20   30.00S

$$
NMZ519>523-251700-
CENTRAL VALLEYS/CENTRAL HIGHLANDS

CITY           SKY/WX    TMP DP  RH WIND       PRES   REMARKS
ALBUQUERQUE    MOSUNNY   57  42  57 CALM      30.01F
DOUBLE EAGLE   MOSUNNY   57  43  58 VRB7      30.03S
CLINES CORNERS SUNNY     56  39  53 W25G37    29.98F
BELEN          FAIR      61  41  47 CALM      30.01F
SOCORRO        NOT AVBL

$$
NMZ524>526-539-540-251700-
SOUTHCENTRAL MOUNTAINS

CITY           SKY/WX    TMP DP  RH WIND       PRES   REMARKS
RUIDOSO        NOT AVBL

$$
NMZ527>531-251700-
NORTHEAST HIGHLANDS/NORTHEAST PLAINS

CITY           SKY/WX    TMP DP  RH WIND       PRES   REMARKS
LAS VEGAS      SUNNY     57  32  38 VRB3      29.95F
RATON          MOSUNNY   62  33  33 W10G17    29.90F
CLAYTON        MOSUNNY   64  40  41 E7        29.91R

$$
NMZ532>537-251700-
EASTCENTRAL PLAINS

CITY           SKY/WX    TMP DP  RH WIND       PRES   REMARKS
TUCUMCARI      PTSUNNY   68  45  43 S13       29.87F
CANNON AFB     NOT AVBL
CLOVIS AIRPORT CLOUDY    63  45  51 SW5       29.90F

$$
NMZ028-029-538-251700-
SOUTHEAST PLAINS

CITY           SKY/WX    TMP DP  RH WIND       PRES   REMARKS
ROSWELL        SUNNY     72  41  32 E8        29.91R
ARTESIA        SUNNY     73  37  27 SE5       29.92S
CARLSBAD       SUNNY     77  39  25 VRB5      29.90S
HOBBS          SUNNY     68  48  49 NE10      29.96R


$$



USA.gov is the U.S. government's official web portal to all federal, state and local government web resources and services.